Youngstown, OH

6:59 PM EST on December 09, 2019 (GMT -0500)
Youngstown-Warren Regional

Weather History for KYNG - September, 2019

Change the Weather History Date:

Wednesday, September 11, 2019

  Actual Average Record
Temperature  
Mean Temperature 78 °F 64 °F  
Max Temperature 90 °F 74 °F 93 °F (1931)
Min Temperature 69 °F 53 °F 34 °F (1967)
Degree Days  
Heating Degree Days 0 3  
Month to date heating degree days 26  
Since 1 July heating degree days 64  
Cooling Degree Days 14 2  
Month to date cooling degree days 29  
Year to date cooling degree days 515  
Growing Degree Days 28 (Base 50)    
Moisture  
Dew Point 66 °F    
Average Humidity 75    
Maximum Humidity 90    
Minimum Humidity 53    
Precipitation  
Precipitation 0.59 in 0.13 in 0.90 in (1975)
Month to date precipitation 1.38  
Year to date precipitation 27.60  
Snow  
Snow - 0.00 in - ()
Month to date snowfall 0.0  
Since 1 July snowfall 0.0  
Since 1 September snowfall 0.0  
Snow Depth -    
Sea Level Pressure  
Sea Level Pressure 30.13 in    
Wind  
Wind Speed 5 mph ()    
Max Wind Speed 9 mph    
Max Gust Speed -    
Visibility 9.1 miles    
Events Rain , Thunderstorm    
T = Trace of Precipitation, MM = Missing Value Source: Averaged Metar Reports

Daily Weather History Graph

Daily Weather History Graph

Search for Another Location

Airport or City:

Astronomy

Sep. 11, 2019 Rise Set
Actual Time 6:58 AM EDT 7:39 PM EDT
Civil Twilight 6:31 AM EDT 8:06 PM EDT
Nautical Twilight 5:58 AM EDT 8:39 PM EDT
Astronomical Twilight 5:23 AM EDT 9:13 PM EDT
Moon 6:52 PM EDT (9/11) 4:17 AM EDT (9/11)
Length of Visible Light 13h 35m
Length of Day
12h 40m
Waxing Gibbous, 94% of the Moon is Illuminated
Sep 11
Waxing Gibbous
Sep 14
Full
Sep 21
Last Quarter
Sep 28
New
Oct 5
First Quarter

Hourly Weather History & Observations

Time (EDT) Temp. Heat Index Dew Point Humidity Pressure Visibility Wind Dir Wind Speed Gust Speed Precip Events Conditions
12:51 AM 72.0 °F - 62.1 °F 71% 30.15 in 10.0 mi South 5.8 mph - N/A   Partly Cloudy
1:51 AM 72.0 °F - 62.1 °F 71% 30.14 in 10.0 mi South 5.8 mph - N/A   Partly Cloudy
2:51 AM 71.1 °F - 62.1 °F 73% 30.14 in 10.0 mi SSW 6.9 mph - N/A   Partly Cloudy
3:51 AM 70.0 °F - 62.1 °F 76% 30.14 in 10.0 mi SSW 6.9 mph - N/A   Partly Cloudy
4:51 AM 69.1 °F - 63.0 °F 81% 30.15 in 10.0 mi SW 5.8 mph - N/A   Partly Cloudy
5:51 AM 69.1 °F - 63.0 °F 81% 30.15 in 10.0 mi SW 6.9 mph - N/A   Partly Cloudy
6:51 AM 70.0 °F - 64.0 °F 81% 30.17 in 10.0 mi SW 6.9 mph - N/A   Scattered Clouds
7:51 AM 71.1 °F - 64.9 °F 81% 30.19 in 10.0 mi SW 4.6 mph - N/A   Mostly Cloudy
8:51 AM 75.0 °F - 66.0 °F 73% 30.19 in 10.0 mi SSW 4.6 mph - N/A   Scattered Clouds
9:51 AM 79.0 °F - 66.9 °F 66% 30.18 in 10.0 mi West 5.8 mph - N/A   Partly Cloudy
10:51 AM 82.0 °F 85.5 °F 69.1 °F 65% 30.18 in 10.0 mi WSW 6.9 mph - N/A   Partly Cloudy
11:51 AM 84.9 °F 88.2 °F 68.0 °F 57% 30.16 in 10.0 mi SW 5.8 mph - N/A   Mostly Cloudy
12:51 PM 86.0 °F 90.7 °F 70.0 °F 59% 30.15 in 10.0 mi West 8.1 mph - N/A   Mostly Cloudy
1:51 PM 88.0 °F 92.1 °F 69.1 °F 53% 30.13 in 10.0 mi WSW 9.2 mph - N/A   Mostly Cloudy
2:51 PM 86.0 °F 88.8 °F 66.9 °F 53% 30.10 in 10.0 mi WSW 8.1 mph - N/A   Mostly Cloudy
3:09 PM 84.9 °F 87.6 °F 66.9 °F 55% 30.12 in 10.0 mi SW 6.9 mph - N/A Thunderstorm Thunderstorm
3:51 PM 77.0 °F - 69.1 °F 76% 30.11 in 7.0 mi Calm Calm - 0.00 in Rain , Thunderstorm Light Thunderstorms and Rain
4:51 PM 78.1 °F - 66.9 °F 68% 30.11 in 9.0 mi North 8.1 mph - 0.00 in Thunderstorm Thunderstorm
5:51 PM 77.0 °F - 66.9 °F 71% 30.06 in 9.0 mi SSE 3.5 mph - N/A Thunderstorm Thunderstorm
6:51 PM 75.0 °F - 68.0 °F 79% 30.09 in 9.0 mi North 9.2 mph - 0.00 in Rain , Thunderstorm Light Thunderstorms and Rain
7:28 PM 73.0 °F - 69.1 °F 87% 30.11 in 8.0 mi Calm Calm - 0.06 in Rain , Thunderstorm Light Thunderstorms and Rain
7:51 PM 72.0 °F - 66.0 °F 81% 30.09 in 8.0 mi South 5.8 mph - 0.06 in Rain , Thunderstorm Light Thunderstorms and Rain
8:26 PM 70.0 °F - 66.0 °F 87% 30.11 in 10.0 mi NNW 3.5 mph - 0.00 in   Overcast
8:51 PM 69.1 °F - 66.0 °F 90% 30.08 in 10.0 mi Calm Calm - 0.00 in   Mostly Cloudy
9:04 PM 69.1 °F - 66.0 °F 90% 30.10 in 10.0 mi Calm Calm - N/A Thunderstorm Thunderstorm
10:29 PM 72.0 °F - 66.9 °F 84% 30.12 in 9.0 mi Variable 3.5 mph - N/A Thunderstorm Thunderstorm
10:38 PM 72.0 °F - 66.9 °F 84% 30.13 in 2.0 mi NNW 9.2 mph - 0.00 in Rain , Thunderstorm Thunderstorms and Rain
10:51 PM 71.1 °F - 66.9 °F 87% 30.10 in 4.0 mi NNE 6.9 mph - 0.53 in Rain , Thunderstorm Thunderstorms and Rain
11:27 PM 69.1 °F - 66.0 °F 90% 30.11 in 9.0 mi East 5.8 mph - 0.00 in   Overcast
11:51 PM 69.1 °F - 66.0 °F 90% 30.08 in 10.0 mi ESE 6.9 mph - 0.00 in   Overcast